Tracking 29892 objects as of 21-Nov-2024
HD Live streaming from Space Station
objects crossing your sky now

SL-14 R/B

Track SL-14 R/B now!
10-day predictions
SL-14 R/B is classified as:


NORAD ID: 19574
Int'l Code: 1988-093B
Perigee: 606.1 km
Apogee: 635.9 km
Inclination: 82.5 °
Period: 97.0 minutes
Semi major axis: 6992 km
RCS: 5.3338 m2 (large)
Launch date: October 11, 1988
Source: Commonwealth of Independent States (former USSR) (CIS)
Launch site: PLESETSK MISSILE AND SPACE COMPLEX (PKMTR)

Note: This is a ROCKET BODY
Your satellite tracking list
Your tracking list is empty




NASA's NSSDC Master Catalog

Two Line Element Set (TLE):
1 19574U 88093B   24325.89266689  .00001107  00000-0  12683-3 0  9996
2 19574  82.5289 126.5594 0021273 161.6835   0.0380 14.84906053951791
Source of the keplerian elements: AFSPC